This is the latest recevied weather packets stored in our database for station/object N8SDR. If no packets are shown the sender has not sent any weather packets the latest 10 day(s).
| Time | Temp. | Humidity | Pressure | Rain* | Wind** | Luminosity | Snow |
|---|---|---|---|---|---|---|---|
| 1777512727 | 13.89° C | 73% | 1009.4 hPa | 0 mm | - | 0 W/m² | - |
| 1777512424 | 13.89° C | 72% | 1009.1 hPa | 0 mm | - | 0 W/m² | - |
| 1777512120 | 13.89° C | 72% | 1009 hPa | 0 mm | - | 0 W/m² | - |
| 1777511819 | 13.89° C | 71% | 1008.9 hPa | 0 mm | - | 0 W/m² | - |
| 1777511515 | 13.89° C | 72% | 1008.9 hPa | 0 mm | - | 0 W/m² | - |
| 1777511212 | 14.44° C | 71% | 1008.7 hPa | 0 mm | - | 0 W/m² | - |
| 1777510908 | 14.44° C | 70% | 1008.7 hPa | 0 mm | - | 0 W/m² | - |
| 1777510604 | 14.44° C | 69% | 1008.6 hPa | 0 mm | - | 0 W/m² | - |
| 1777510301 | 14.44° C | 69% | 1008.6 hPa | 0 mm | - | 0 W/m² | - |
| 1777509998 | 15° C | 69% | 1008.6 hPa | 0 mm | - | 0 W/m² | - |
| 1777509693 | 15° C | 68% | 1008.7 hPa | 0 mm | - | 0 W/m² | - |
| 1777509390 | 15° C | 69% | 1008.5 hPa | 0 mm | - | 0 W/m² | - |
| 1777509087 | 15° C | 69% | 1008.4 hPa | 0 mm | - | 0 W/m² | - |
| 1777508784 | 15° C | 68% | 1008.2 hPa | 0 mm | - | 2 W/m² | - |
| 1777508482 | 15° C | 69% | 1008.4 hPa | 0 mm | - | 4 W/m² | - |
| 1777508179 | 15.56° C | 68% | 1008.4 hPa | 0 mm | - | 10 W/m² | - |
| 1777507875 | 15.56° C | 67% | 1008.2 hPa | 0 mm | - | 13 W/m² | - |
| 1777507572 | 15.56° C | 65% | 1008.2 hPa | 0 mm | - | 20 W/m² | - |
| 1777507269 | 15.56° C | 66% | 1008.1 hPa | 0 mm | - | 26 W/m² | - |
| 1777506967 | 15.56° C | 67% | 1008.2 hPa | 0 mm | - | 25 W/m² | - |
| 1777506664 | 15.56° C | 67% | 1008.1 hPa | 0 mm | - | 29 W/m² | - |
| 1777506360 | 15.56° C | 67% | 1007.9 hPa | 0 mm | - | 34 W/m² | - |
| 1777506056 | 16.11° C | 66% | 1008 hPa | 0 mm | - | 34 W/m² | - |
| 1777505751 | 16.11° C | 66% | 1008 hPa | 0 mm | - | 26 W/m² | - |
| 1777505449 | 16.11° C | 66% | 1007.9 hPa | 0 mm | - | 27 W/m² | - |
* Rain latest hour (hover to see other rain measurements)
** Current wind speed in m/s (hover to see current wind gust speed)